{"data":{"norad_id":69089,"epoch":"2026-05-24T19:45:39.077280Z","epoch_age_seconds":97133,"freshness":"FRESH","line1":"1 69089U 26104S   26144.82336895  .00000079  00000+0  27306-4 0  9993","line2":"2 69089  88.9868 344.2850 0003542 163.5392 196.5916 14.25359790  1777","mean_motion":14.2535979,"eccentricity":0.0003542,"inclination_deg":88.9868,"raan_deg":344.285,"arg_perigee_deg":163.5392,"mean_anomaly_deg":196.5916,"bstar":2.7306e-5,"rev_number":177,"period_min":101.02712382535,"perigee_km":804.73815895746,"apogee_km":809.8283106518,"semimajor_km":7185.4202348046,"source":"CELESTRAK","updated_at":"2026-05-25T13:38:09.052692Z"}}